Time,TemperatureF,DewpointF,PressureIn,WindDirection,WindDirectionDegrees,WindSpeedMPH,WindSpeedGustMPH,Humidity,HourlyPrecipIn,Conditions,Clouds,dailyrainin,SoftwareType,DateUTC
2013-03-10 00:01:00,51.0,39.0,30.11,NE,36,0.0,0.0,63,0.00,,,0.00,,2013-03-10 06:01:00,
2013-03-10 00:11:00,51.0,39.0,30.11,NE,36,0.0,0.0,63,0.00,,,0.00,,2013-03-10 06:11:00,
2013-03-10 00:21:00,49.0,39.0,30.11,NE,36,0.0,0.0,69,0.00,,,0.00,,2013-03-10 06:21:00,
2013-03-10 00:31:00,48.0,39.0,30.12,North,355,0.0,0.0,70,0.00,,,0.00,,2013-03-10 06:31:00,
2013-03-10 00:41:00,48.0,39.0,30.12,North,355,0.0,0.0,70,0.00,,,0.00,,2013-03-10 06:41:00,
2013-03-10 01:01:00,50.0,36.0,30.13,NE,35,0.0,1.0,59,0.00,,,0.00,,2013-03-10 07:01:00,
2013-03-10 01:11:00,50.0,36.0,30.13,NE,35,0.0,1.0,59,0.00,,,0.00,,2013-03-10 07:11:00,
2013-03-10 01:21:00,50.0,34.0,30.13,NE,53,0.0,2.0,55,0.00,,,0.00,,2013-03-10 07:21:00,
2013-03-10 01:31:00,49.0,32.0,30.13,NNE,17,0.0,1.0,52,0.00,,,0.00,,2013-03-10 07:31:00,
2013-03-10 01:41:00,49.0,31.0,30.13,North,5,0.0,3.0,50,0.00,,,0.00,,2013-03-10 07:41:00,
2013-03-10 01:52:00,49.0,31.0,30.13,North,5,0.0,3.0,50,0.00,,,0.00,,2013-03-10 07:52:00,
2013-03-10 03:01:00,52.0,28.0,30.13,NW,316,1.0,6.0,39,0.00,,,0.00,,2013-03-10 08:01:00,
2013-03-10 03:11:00,52.0,28.0,30.13,NW,316,1.0,6.0,39,0.00,,,0.00,,2013-03-10 08:11:00,
2013-03-10 03:21:00,53.0,27.0,30.14,NW,311,1.0,6.0,37,0.00,,,0.00,,2013-03-10 08:21:00,
2013-03-10 03:31:00,53.0,27.0,30.14,NNE,33,2.0,8.0,36,0.00,,,0.00,,2013-03-10 08:31:00,
2013-03-10 03:42:00,53.0,27.0,30.14,NNE,33,2.0,8.0,36,0.00,,,0.00,,2013-03-10 08:42:00,
2013-03-10 03:51:00,54.0,26.0,30.14,NW,312,3.0,9.0,34,0.00,,,0.00,,2013-03-10 08:51:00,
2013-03-10 04:01:00,53.0,25.0,30.15,NW,305,2.0,9.0,34,0.00,,,0.00,,2013-03-10 09:01:00,
2013-03-10 04:11:00,53.0,25.0,30.15,NW,305,2.0,9.0,34,0.00,,,0.00,,2013-03-10 09:11:00,
2013-03-10 04:21:00,52.0,27.0,30.16,North,360,2.0,4.0,37,0.00,,,0.00,,2013-03-10 09:21:00,
2013-03-10 04:31:00,51.0,26.0,30.16,NNE,24,1.0,9.0,38,0.00,,,0.00,,2013-03-10 09:31:00,
2013-03-10 04:41:00,51.0,26.0,30.16,NNE,24,1.0,9.0,38,0.00,,,0.00,,2013-03-10 09:41:00,
2013-03-10 04:51:00,52.0,26.0,30.16,NNE,32,2.0,6.0,36,0.00,,,0.00,,2013-03-10 09:51:00,
2013-03-10 05:01:00,52.0,26.0,30.16,NNW,342,1.0,5.0,36,0.00,,,0.00,,2013-03-10 10:01:00,
2013-03-10 05:11:00,52.0,26.0,30.16,NNW,342,1.0,5.0,36,0.00,,,0.00,,2013-03-10 10:11:00,
2013-03-10 05:21:00,52.0,26.0,30.16,NNW,342,1.0,5.0,36,0.00,,,0.00,,2013-03-10 10:21:00,
2013-03-10 05:31:00,52.0,26.0,30.16,NNW,342,1.0,5.0,36,0.00,,,0.00,,2013-03-10 10:31:00,
2013-03-10 05:41:00,52.0,26.0,30.16,NNW,342,1.0,5.0,36,0.00,,,0.00,,2013-03-10 10:41:00,
2013-03-10 10:01:00,50.0,25.0,30.25,NW,315,1.0,8.0,37,0.00,,,0.00,,2013-03-10 15:01:00,
2013-03-10 10:11:00,50.0,25.0,30.25,NW,315,1.0,8.0,37,0.00,,,0.00,,2013-03-10 15:11:00,
2013-03-10 10:21:00,51.0,24.0,30.25,NNW,338,2.0,6.0,35,0.00,,,0.00,,2013-03-10 15:21:00,
2013-03-10 10:31:00,52.0,25.0,30.26,NNW,339,2.0,9.0,34,0.00,,,0.00,,2013-03-10 15:31:00,
2013-03-10 10:41:00,52.0,25.0,30.26,NNW,339,2.0,9.0,34,0.00,,,0.00,,2013-03-10 15:41:00,
2013-03-10 10:52:00,52.0,25.0,30.26,North,360,2.0,9.0,34,0.00,,,0.00,,2013-03-10 15:52:00,
2013-03-10 11:01:00,53.0,25.0,30.26,NW,311,3.0,11.0,33,0.00,,,0.00,,2013-03-10 16:01:00,
2013-03-10 11:11:00,53.0,25.0,30.26,NW,311,3.0,11.0,33,0.00,,,0.00,,2013-03-10 16:11:00,
2013-03-10 11:21:00,54.0,25.0,30.27,NNE,32,4.0,12.0,32,0.00,,,0.00,,2013-03-10 16:21:00,
2013-03-10 11:31:00,54.0,23.0,30.27,WSW,257,7.0,13.0,30,0.00,,,0.00,,2013-03-10 16:31:00,
2013-03-10 11:41:00,54.0,23.0,30.27,WSW,257,7.0,13.0,30,0.00,,,0.00,,2013-03-10 16:41:00,
2013-03-10 11:52:00,55.0,23.0,30.28,NW,314,5.0,11.0,29,0.00,,,0.00,,2013-03-10 16:52:00,
2013-03-10 12:01:00,56.0,24.0,30.27,WNW,299,3.0,9.0,29,0.00,,,0.00,,2013-03-10 17:01:00,
2013-03-10 12:11:00,56.0,24.0,30.27,WNW,299,3.0,9.0,29,0.00,,,0.00,,2013-03-10 17:11:00,
2013-03-10 12:21:00,57.0,23.0,30.27,NW,325,6.0,12.0,27,0.00,,,0.00,,2013-03-10 17:21:00,
2013-03-10 12:31:00,58.0,25.0,30.27,NNW,339,5.0,11.0,28,0.00,,,0.00,,2013-03-10 17:31:00,
2013-03-10 12:41:00,58.0,25.0,30.27,NNW,339,5.0,11.0,28,0.00,,,0.00,,2013-03-10 17:41:00,
2013-03-10 12:51:00,58.0,23.0,30.27,NNW,331,5.0,11.0,26,0.00,,,0.00,,2013-03-10 17:51:00,
2013-03-10 13:01:00,59.0,23.0,30.27,North,360,3.0,10.0,25,0.00,,,0.00,,2013-03-10 18:01:00,
2013-03-10 13:11:00,59.0,23.0,30.27,North,360,3.0,10.0,25,0.00,,,0.00,,2013-03-10 18:11:00,
2013-03-10 13:21:00,60.0,22.0,30.26,NNW,340,6.0,13.0,23,0.00,,,0.00,,2013-03-10 18:21:00,
2013-03-10 13:31:00,61.0,23.0,30.26,NE,42,4.0,11.0,23,0.00,,,0.00,,2013-03-10 18:31:00,
2013-03-10 13:41:00,61.0,23.0,30.26,NE,42,4.0,11.0,23,0.00,,,0.00,,2013-03-10 18:41:00,
2013-03-10 13:52:00,61.0,21.0,30.26,North,351,3.0,11.0,21,0.00,,,0.00,,2013-03-10 18:52:00,
2013-03-10 14:01:00,62.0,20.0,30.25,North,355,5.0,12.0,20,0.00,,,0.00,,2013-03-10 19:01:00,
2013-03-10 14:11:00,62.0,20.0,30.25,North,355,5.0,12.0,20,0.00,,,0.00,,2013-03-10 19:11:00,
2013-03-10 14:21:00,62.0,20.0,30.25,NNW,348,4.0,10.0,20,0.00,,,0.00,,2013-03-10 19:21:00,
2013-03-10 14:31:00,62.0,22.0,30.24,West,273,1.0,8.0,21,0.00,,,0.00,,2013-03-10 19:31:00,
2013-03-10 14:41:00,62.0,22.0,30.24,West,273,1.0,8.0,21,0.00,,,0.00,,2013-03-10 19:41:00,
2013-03-10 14:53:00,63.0,21.0,30.24,NW,320,4.0,9.0,20,0.00,,,0.00,,2013-03-10 19:53:00,
2013-03-10 15:01:00,63.0,21.0,30.23,NE,47,2.0,4.0,20,0.00,,,0.00,,2013-03-10 20:01:00,
2013-03-10 15:12:00,63.0,21.0,30.23,NE,47,2.0,4.0,20,0.00,,,0.00,,2013-03-10 20:12:00,
2013-03-10 15:22:00,64.0,22.0,30.22,SW,225,1.0,4.0,20,0.00,,,0.00,,2013-03-10 20:22:00,
2013-03-10 15:32:00,65.0,23.0,30.21,WNW,298,2.0,5.0,20,0.00,,,0.00,,2013-03-10 20:32:00,
2013-03-10 15:42:00,65.0,23.0,30.21,WNW,298,2.0,5.0,20,0.00,,,0.00,,2013-03-10 20:42:00,
2013-03-10 15:53:00,64.0,21.0,30.20,NW,315,1.0,5.0,19,0.00,,,0.00,,2013-03-10 20:53:00,
2013-03-10 16:02:00,65.0,20.0,30.20,NW,308,2.0,5.0,18,0.00,,,0.00,,2013-03-10 21:02:00,
2013-03-10 16:12:00,65.0,20.0,30.20,NW,308,2.0,5.0,18,0.00,,,0.00,,2013-03-10 21:12:00,
2013-03-10 16:22:00,65.0,23.0,30.19,NNW,330,3.0,6.0,20,0.00,,,0.00,,2013-03-10 21:22:00,
2013-03-10 16:32:00,64.0,22.0,30.19,WNW,294,1.0,4.0,20,0.00,,,0.00,,2013-03-10 21:32:00,
2013-03-10 16:42:00,64.0,22.0,30.19,WNW,294,1.0,4.0,20,0.00,,,0.00,,2013-03-10 21:42:00,
2013-03-10 16:52:00,65.0,22.0,30.18,NNE,26,2.0,5.0,19,0.00,,,0.00,,2013-03-10 21:52:00,
2013-03-10 17:02:00,66.0,21.0,30.18,NE,53,4.0,7.0,18,0.00,,,0.00,,2013-03-10 22:02:00,
2013-03-10 17:12:00,66.0,21.0,30.18,NE,53,4.0,7.0,18,0.00,,,0.00,,2013-03-10 22:12:00,
2013-03-10 17:21:00,65.0,24.0,30.18,East,82,2.0,7.0,21,0.00,,,0.00,,2013-03-10 22:21:00,
2013-03-10 17:32:00,66.0,23.0,30.17,NNE,23,2.0,6.0,19,0.00,,,0.00,,2013-03-10 22:32:00,
2013-03-10 17:42:00,66.0,23.0,30.17,NNE,23,2.0,6.0,19,0.00,,,0.00,,2013-03-10 22:42:00,
2013-03-10 17:52:00,68.0,23.0,30.17,NW,325,2.0,7.0,18,0.00,,,0.00,,2013-03-10 22:52:00,
2013-03-10 18:02:00,68.0,22.0,30.16,SSE,155,2.0,7.0,17,0.00,,,0.00,,2013-03-10 23:02:00,
2013-03-10 18:11:00,68.0,22.0,30.16,SSE,155,2.0,7.0,17,0.00,,,0.00,,2013-03-10 23:11:00,
2013-03-10 18:22:00,67.0,22.0,30.15,North,350,2.0,8.0,18,0.00,,,0.00,,2013-03-10 23:22:00,
2013-03-10 18:31:00,67.0,22.0,30.15,North,350,2.0,8.0,18,0.00,,,0.00,,2013-03-10 23:31:00,
2013-03-10 18:42:00,67.0,22.0,30.15,North,350,2.0,8.0,18,0.00,,,0.00,,2013-03-10 23:42:00,
2013-03-10 18:52:00,67.0,22.0,30.15,North,350,2.0,8.0,18,0.00,,,0.00,,2013-03-10 23:52:00,
2013-03-10 19:02:00,67.0,22.0,30.15,North,350,2.0,8.0,18,0.00,,,0.00,,2013-03-11 00:02:00,
2013-03-10 19:23:00,68.0,23.0,30.14,West,263,0.0,5.0,18,0.00,,,0.00,,2013-03-11 00:23:00,
2013-03-10 19:33:00,67.0,21.0,30.14,ESE,110,2.0,5.0,17,0.00,,,0.00,,2013-03-11 00:33:00,
2013-03-10 19:43:00,67.0,21.0,30.14,ESE,110,2.0,5.0,17,0.00,,,0.00,,2013-03-11 00:43:00,
2013-03-10 19:53:00,67.0,22.0,30.14,NNE,27,1.0,3.0,18,0.00,,,0.00,,2013-03-11 00:53:00,
2013-03-10 20:02:00,66.0,21.0,30.14,East,83,1.0,3.0,18,0.00,,,0.00,,2013-03-11 01:02:00,
2013-03-10 20:12:00,66.0,21.0,30.14,East,83,1.0,3.0,18,0.00,,,0.00,,2013-03-11 01:12:00,
2013-03-10 20:22:00,66.0,23.0,30.14,ENE,61,0.0,2.0,19,0.00,,,0.00,,2013-03-11 01:22:00,
2013-03-10 20:32:00,65.0,23.0,30.14,NE,56,0.0,2.0,20,0.00,,,0.00,,2013-03-11 01:32:00,
2013-03-10 20:42:00,65.0,23.0,30.14,NE,56,0.0,2.0,20,0.00,,,0.00,,2013-03-11 01:42:00,
2013-03-10 20:53:00,64.0,23.0,30.14,NE,56,0.0,0.0,21,0.00,,,0.00,,2013-03-11 01:53:00,
2013-03-10 21:02:00,61.0,25.0,30.15,NE,56,0.0,0.0,25,0.00,,,0.00,,2013-03-11 02:02:00,
2013-03-10 21:12:00,61.0,25.0,30.15,NE,56,0.0,0.0,25,0.00,,,0.00,,2013-03-11 02:12:00,
2013-03-10 21:22:00,59.0,28.0,30.15,NE,56,0.0,0.0,30,0.00,,,0.00,,2013-03-11 02:22:00,
2013-03-10 21:32:00,58.0,28.0,30.15,NE,56,0.0,0.0,31,0.00,,,0.00,,2013-03-11 02:32:00,
2013-03-10 21:52:00,57.0,27.0,30.15,NE,56,0.0,0.0,31,0.00,,,0.00,,2013-03-11 02:52:00,
2013-03-10 22:02:00,56.0,27.0,30.15,NE,56,0.0,0.0,33,0.00,,,0.00,,2013-03-11 03:02:00,
2013-03-10 22:21:00,56.0,28.0,30.16,NE,56,0.0,0.0,34,0.00,,,0.00,,2013-03-11 03:21:00,
2013-03-10 22:31:00,55.0,30.0,30.16,NE,56,0.0,0.0,38,0.00,,,0.00,,2013-03-11 03:31:00,
2013-03-10 22:52:00,55.0,31.0,30.16,NE,56,0.0,0.0,40,0.00,,,0.00,,2013-03-11 03:52:00,
2013-03-10 23:02:00,54.0,27.0,30.16,NE,56,0.0,0.0,35,0.00,,,0.00,,2013-03-11 04:02:00,
2013-03-10 23:22:00,53.0,29.0,30.17,NE,56,0.0,0.0,39,0.00,,,0.00,,2013-03-11 04:22:00,
2013-03-10 23:32:00,53.0,28.0,30.18,NE,56,0.0,0.0,38,0.00,,,0.00,,2013-03-11 04:32:00,
2013-03-10 23:53:00,52.0,28.0,30.18,NE,56,0.0,0.0,39,0.00,,,0.00,,2013-03-11 04:53:00,